Location: Treviso
(45.6669°N, 12.2430°E)
Time: 10:35:21
(UTC+01:00)

ISS - Pass Details

Date: 24 March 2023
Orbit: 414 x 423 km, 51.6° (Epoch: 20 March)

Event Time Altitude Azimuth Distance (km) Brightness Sun altitude
Rises 20:17:00 0° 292° (WNW) 2,359 1.7 -19.2°
Reaches altitude 10° 20:19:16 10° 303° (WNW) 1,494 0.2 -19.6°
Maximum altitude 20:22:16 29° 7° (N) 788 -2.3 -20.1°
Enters shadow 20:22:44 28° 23° (NNE) 812 -2.3 -20.1°
